TimeEST,TemperatureF,Dew PointF,Humidity,Sea Level PressureIn,VisibilityMPH,Wind Direction,Wind SpeedMPH,Gust SpeedMPH,PrecipitationIn,Events,Conditions,WindDirDegrees,DateUTC
12:53 AM,34.0,24.1,67,30.39,10.0,NE,5.8,-,N/A,,Overcast,40,2013-03-08 05:53:00
1:53 AM,34.0,24.1,67,30.40,10.0,NE,3.5,-,N/A,,Overcast,40,2013-03-08 06:53:00
2:53 AM,33.1,24.1,70,30.39,10.0,NE,6.9,-,N/A,,Overcast,40,2013-03-08 07:53:00
3:53 AM,33.1,24.1,70,30.39,10.0,NE,4.6,-,N/A,,Overcast,40,2013-03-08 08:53:00
4:11 AM,32.0,23.0,69,30.34,10.0,Variable,3.5,-,N/A,,Scattered Clouds,0,2013-03-08 09:11:00
4:53 AM,30.9,23.0,72,30.40,10.0,NNE,3.5,-,N/A,,Clear,20,2013-03-08 09:53:00
5:53 AM,30.9,23.0,72,30.42,10.0,NNE,3.5,-,N/A,,Clear,30,2013-03-08 10:53:00
6:53 AM,30.0,23.0,75,30.43,10.0,Calm,Calm,-,N/A,,Clear,0,2013-03-08 11:53:00
7:53 AM,32.0,24.1,73,30.45,10.0,Calm,Calm,-,N/A,,Clear,0,2013-03-08 12:53:00
8:53 AM,36.0,23.0,59,30.46,10.0,Variable,6.9,16.1,N/A,,Clear,0,2013-03-08 13:53:00
9:53 AM,39.9,24.1,53,30.45,10.0,ENE,9.2,-,N/A,,Clear,60,2013-03-08 14:53:00
10:53 AM,43.0,24.1,47,30.43,10.0,Variable,5.8,-,N/A,,Clear,0,2013-03-08 15:53:00
11:53 AM,46.0,24.1,42,30.43,10.0,NE,4.6,-,N/A,,Clear,50,2013-03-08 16:53:00
12:53 PM,46.9,23.0,39,30.42,10.0,East,8.1,-,N/A,,Clear,80,2013-03-08 17:53:00
1:53 PM,51.1,24.1,35,30.38,10.0,ENE,5.8,-,N/A,,Clear,60,2013-03-08 18:53:00
2:53 PM,52.0,23.0,32,30.35,10.0,ENE,6.9,-,N/A,,Clear,70,2013-03-08 19:53:00
3:53 PM,53.1,21.9,30,30.34,10.0,Variable,6.9,16.1,N/A,,Clear,0,2013-03-08 20:53:00
4:53 PM,52.0,23.0,32,30.32,10.0,East,9.2,17.3,N/A,,Clear,90,2013-03-08 21:53:00
5:53 PM,51.1,23.0,33,30.33,10.0,ENE,8.1,-,N/A,,Clear,60,2013-03-08 22:53:00
6:53 PM,48.9,23.0,36,30.35,10.0,ENE,4.6,-,N/A,,Clear,60,2013-03-08 23:53:00
7:53 PM,46.0,25.0,44,30.35,10.0,Calm,Calm,-,N/A,,Clear,0,2013-03-09 00:53:00
8:53 PM,42.1,27.0,55,30.35,10.0,North,3.5,-,N/A,,Clear,350,2013-03-09 01:53:00
9:53 PM,37.9,28.0,68,30.36,10.0,Calm,Calm,-,N/A,,Clear,0,2013-03-09 02:53:00
10:53 PM,37.0,27.0,67,30.36,10.0,Calm,Calm,-,N/A,,Clear,0,2013-03-09 03:53:00
11:53 PM,36.0,28.0,73,30.35,10.0,Calm,Calm,-,N/A,,Clear,0,2013-03-09 04:53:00